Flag for Colombia Weather past 2 weeks in Bogota, Colombia

Now
50 °F

Passing clouds.


Feels Like: 50 °F
Forecast: 49 / 65 °F
Wind: 2 mph from North

Location: Bogota / Eldorado

Current Time: Mar 1, 2015 at 4:03:39 AM

Latest Report: Mar 1, 2015 at 3:00 AM


Visibility: N/A

Pressure: 30.32 "Hg

Humidity: 88%

Dew point: 46 °F

Location of BogotaLocation

Historic Weather in Bogota — Graph

°F

Bogota temperature yesterday

Maximum temperature yesterday: 68 °F (at 11:00 AM)
Minimum temperature yesterday: 50 °F (at 3:00 AM)
Average temperature yesterday: 59 °F

Past Weeks' High & Low Weather Summary

 TemperatureHumidityPressure
High73 °F (Feb 21, 1:00 PM)100% (Feb 16, 6:00 AM)30.41 "Hg (Feb 16, 6:00 AM)
Low37 °F (Feb 17, 5:00 AM)27% (Feb 23, 2:00 PM)30.19 "Hg (Feb 21, 8:00 PM)
Average57 °F71%30.30 "Hg
* Reported Feb 14 3:00 AM — Mar 1 3:00 AM, Bogota, Weather by CustomWeather, © 2015

Note: Actual official high and low records may vary slightly from our data, if they occured in-between our weather recording intervals... More about our weather records

Advertising

Bogota weather history for previous 24 hours

 ConditionsComfort  
Time TempWeatherWind HumidityBarometerVisibility
3:00 AM
Sun, Mar 1
50 °FPassing clouds.2 mph88%30.32 "HgN/A
2:00 AM50 °FPassing clouds.2 mph88%30.33 "HgN/A
1:00 AM50 °FPassing clouds.5 mph82%30.35 "HgN/A
12:00 AM50 °FPassing clouds.8 mph88%30.38 "HgN/A
11:00 PM
Sat, Feb 28
52 °FPassing clouds.6 mph82%30.40 "HgN/A
10:00 PM55 °FPassing clouds.8 mph67%30.38 "HgN/A
9:00 PM54 °FPassing clouds.6 mph77%30.37 "HgN/A
8:00 PM55 °FPassing clouds.5 mph72%30.34 "HgN/A
7:00 PM57 °FPassing clouds.5 mph67%30.31 "HgN/A
6:00 PM63 °FBroken clouds.3 mph56%30.27 "HgN/A
5:00 PM64 °FBroken clouds.5 mph56%30.26 "HgN/A
4:00 PM64 °FPartly sunny.9 mph49%30.25 "HgN/A
3:00 PM68 °FBroken clouds.10 mph43%30.25 "HgN/A
2:00 PM68 °FPartly sunny.14 mph43%30.29 "HgN/A
1:00 PM66 °FPartly sunny.15 mph43%30.32 "HgN/A
12:00 PM64 °FPartly sunny.12 mph49%30.35 "HgN/A
11:00 AM68 °FPartly sunny.7 mph49%30.37 "HgN/A
10:00 AM63 °FPartly sunny.14 mph56%30.38 "HgN/A
9:00 AM64 °FPassing clouds.12 mph56%30.39 "HgN/A
8:00 AM61 °FPassing clouds.12 mph63%30.35 "HgN/A
7:00 AM55 °FPassing clouds.9 mph72%30.34 "HgN/A
6:00 AM52 °FPassing clouds.3 mph82%30.32 "HgN/A
5:00 AM52 °FPassing clouds.2 mph82%30.30 "HgN/A
4:00 AM52 °FPassing clouds.6 mph82%30.29 "HgN/A
Weather by CustomWeather, © 2015

See weather overviewHow to use our weather pages